QPF
0.02 0.04 0.03 0.04 0.05 0.05 0.05 0.04 0.03 0.03 0.03 0.03 0.02 0.03 0.02 0.03 0.04 0.03 0.03 0.06 0.10 0.11 0.10 0.09 0.09 0.08 0.05 0.04 0.03 0.04 0.05 0.04 0.03 0.03 0.03 0.03 0.03 0.03 0.04 0.03 0.03 0.04 0.04
0.02 0.02 0.02 0.03 0.03 0.04 0.04 0.04 0.03 0.03 0.02 0.02 0.02 0.02 0.01 0.01 0.03 0.03 0.04 0.05 0.06 0.06 0.06 0.07 0.07 0.06 0.05 0.04 0.04 0.04 0.04 0.03 0.03 0.02 0.03 0.03 0.03 0.04 0.05 0.05 0.04 0.04 0.05
0.02 0.02 0.02 0.02 0.02 0.02 0.02 0.03 0.03 0.04 0.03 0.03 0.03 0.02 0.02 0.02 0.02 0.03 0.04 0.04 0.03 0.02 0.03 0.04 0.05 0.06 0.05 0.04 0.04 0.04 0.04 0.04 0.04 0.03 0.03 0.03 0.04 0.05 0.07 0.09 0.09 0.07 0.04
0.03 0.03 0.02 0.02 0.02 0.03 0.03 0.04 0.05 0.05 0.04 0.04 0.03 0.02 0.02 0.02 0.02 0.03 0.03 0.02 0.02 0.02 0.02 0.02 0.04 0.04 0.05 0.06 0.07 0.06 0.05 0.05 0.05 0.04 0.04 0.04 0.04 0.05 0.09 0.11 0.08 0.07 0.06
0.03 0.03 0.03 0.03 0.03 0.03 0.06 0.06 0.05 0.03 0.04 0.04 0.04 0.03 0.03 0.02 0.03 0.03 0.03 0.02 0.02 0.03 0.03 0.02 0.01 0.02 0.04 0.06 0.07 0.07 0.07 0.06 0.05 0.04 0.04 0.04 0.04 0.05 0.09 0.11 0.09 0.08 0.07
0.02 0.02 0.03 0.03 0.03 0.04 0.05 0.05 0.04 0.03 0.03 0.04 0.03 0.02 0.02 0.02 0.03 0.03 0.02 0.01 0.02 0.02 0.02 0.02 0.02 0.01 0.01 0.03 0.04 0.06 0.08 0.08 0.06 0.05 0.04 0.04 0.04 0.04 0.06 0.09 0.08 0.06 0.05
0.03 0.03 0.04 0.04 0.03 0.04 0.05 0.04 0.05 0.04 0.03 0.03 0.03 0.03 0.01 0.02 0.02 0.02 0.01 0.01 0.02 0.02 0.02 0.02 0.02 0.02 0.01 0.01 0.01 0.03 0.05 0.05 0.04 0.04 0.04 0.04 0.04 0.05 0.04 0.04 0.04 0.05 0.05
0.04 0.03 0.04 0.03 0.03 0.05 0.06 0.04 0.05 0.04 0.03 0.03 0.02 0.02 0.02 0.02 0.02 0.01 0.01 0.01 0.01 0.02 0.02 0.01 0.01 0.01 0.02 0.03 0.01 0.02 0.02 0.03 0.03 0.04 0.04 0.05 0.05 0.05 0.04 0.04 0.04 0.05 0.05
0.04 0.03 0.03 0.03 0.03 0.03 0.04 0.04 0.05 0.05 0.04 0.04 0.03 0.03 0.03 0.03 0.02 0.02 0.02 0.01 0.01 0.01 0.02 0.01 0.01 0.01 0.01 0.02 0.02 0.01 0.01 0.01 0.02 0.04 0.04 0.04 0.05 0.06 0.05 0.05 0.05 0.05 0.08
0.04 0.04 0.03 0.03 0.03 0.04 0.04 0.04 0.05 0.07 0.07 0.06 0.05 0.04 0.02 0.02 0.04 0.03 0.02 0.02 0.01 0.01 0.01 0.01 0.01 0.01 0.02 0.01 0.01 0.01 0.00 0.00 0.01 0.02 0.03 0.03 0.04 0.05 0.06 0.06 0.06 0.06 0.07
0.06 0.06 0.05 0.04 0.04 0.04 0.04 0.04 0.05 0.08 0.09 0.07 0.06 0.05 0.04 0.04 0.03 0.03 0.02 0.02 0.02 0.02 0.02 0.02 0.02 0.01 0.01 0.01 0.01 0.00 0.00 0.00 0.01 0.01 0.01 0.02 0.02 0.03 0.04 0.05 0.06 0.07 0.07
0.03 0.04 0.05 0.06 0.06 0.06 0.06 0.06 0.05 0.07 0.08 0.06 0.05 0.05 0.06 0.05 0.04 0.04 0.03 0.02 0.03 0.02 0.02 0.04 0.04 0.02 0.01 0.01 0.00 0.00 0.00 0.00 0.00 0.01 0.01 0.01 0.02 0.02 0.02 0.03 0.04 0.07 0.08
0.02 0.03 0.03 0.04 0.05 0.05 0.04 0.03 0.04 0.05 0.05 0.06 0.05 0.04 0.03 0.02 0.02 0.03 0.03 0.03 0.03 0.02 0.02 0.02 0.02 0.01 0.01 0.01 0.00 0.00 0.00 0.00 0.00 0.00 0.01 0.01 0.01 0.01 0.02 0.03 0.05 0.07 0.10
0.02 0.02 0.02 0.03 0.04 0.04 0.03 0.03 0.04 0.04 0.04 0.04 0.04 0.04 0.04 0.03 0.02 0.03 0.04 0.04 0.04 0.03 0.02 0.01 0.01 0.01 0.01 0.01 0.00 0.00 0.01 0.00 0.00 0.00 0.00 0.01 0.01 0.01 0.01 0.02 0.03 0.06 0.10
0.03 0.03 0.03 0.03 0.04 0.04 0.03 0.03 0.03 0.02 0.02 0.03 0.03 0.03 0.03 0.02 0.02 0.02 0.03 0.04 0.05 0.05 0.03 0.02 0.02 0.01 0.01 0.01 0.01 0.01 0.01 0.01 0.01 0.01 0.01 0.00 0.01 0.01 0.01 0.02 0.06 0.07 0.07
0.03 0.03 0.05 0.05 0.05 0.05 0.04 0.04 0.04 0.03 0.03 0.03 0.02 0.02 0.02 0.01 0.02 0.02 0.03 0.03 0.04 0.05 0.04 0.02 0.02 0.01 0.01 0.02 0.03 0.01 0.02 0.04 0.02 0.02 0.02 0.01 0.01 0.01 0.01 0.02 0.07 0.13 0.10
0.03 0.03 0.05 0.06 0.06 0.06 0.05 0.05 0.04 0.02 0.03 0.04 0.03 0.03 0.03 0.02 0.03 0.03 0.03 0.03 0.04 0.04 0.04 0.02 0.02 0.02 0.02 0.02 0.02 0.01 0.01 0.02 0.03 0.04 0.05 0.04 0.03 0.02 0.02 0.02 0.05 0.10 0.15
0.04 0.04 0.06 0.07 0.08 0.07 0.05 0.04 0.04 0.02 0.02 0.03 0.03 0.04 0.03 0.03 0.03 0.03 0.03 0.04 0.04 0.04 0.04 0.04 0.02 0.02 0.02 0.02 0.03 0.02 0.01 0.01 0.02 0.03 0.03 0.03 0.03 0.03 0.03 0.02 0.03 0.05 0.10
0.05 0.05 0.05 0.06 0.05 0.05 0.06 0.05 0.05 0.03 0.02 0.02 0.03 0.03 0.03 0.04 0.04 0.03 0.03 0.04 0.04 0.04 0.04 0.04 0.03 0.02 0.02 0.02 0.03 0.03 0.03 0.03 0.03 0.03 0.04 0.04 0.03 0.04 0.03 0.02 0.02 0.02 0.05
0.05 0.05 0.04 0.04 0.04 0.04 0.05 0.06 0.05 0.03 0.03 0.02 0.03 0.03 0.03 0.03 0.03 0.03 0.03 0.04 0.04 0.04 0.05 0.05 0.04 0.03 0.02 0.02 0.03 0.05 0.06 0.05 0.05 0.04 0.05 0.04 0.04 0.04 0.04 0.03 0.02 0.01 0.01
0.04 0.05 0.04 0.04 0.04 0.04 0.04 0.05 0.04 0.02 0.03 0.03 0.03 0.04 0.03 0.04 0.05 0.05 0.04 0.03 0.04 0.04 0.05 0.05 0.05 0.04 0.03 0.04 0.05 0.05 0.06 0.07 0.05 0.04 0.04 0.03 0.03 0.03 0.03 0.03 0.02 0.01 0.00
0.03 0.05 0.04 0.04 0.04 0.03 0.04 0.04 0.02 0.02 0.03 0.03 0.02 0.02 0.02 0.02 0.03 0.05 0.04 0.04 0.04 0.04 0.04 0.04 0.05 0.04 0.04 0.03 0.03 0.04 0.05 0.06 0.06 0.05 0.05 0.04 0.03 0.02 0.02 0.02 0.03 0.02 0.01
0.03 0.04 0.02 0.02 0.02 0.03 0.03 0.02 0.02 0.02 0.03 0.02 0.01 0.01 0.01 0.01 0.01 0.01 0.02 0.03 0.03 0.02 0.03 0.03 0.04 0.03 0.04 0.03 0.04 0.05 0.05 0.04 0.04 0.03 0.04 0.03 0.02 0.02 0.01 0.02 0.02 0.02 0.01
0.02 0.03 0.02 0.02 0.01 0.01 0.03 0.02 0.02 0.02 0.02 0.02 0.02 0.02 0.02 0.01 0.01 0.01 0.02 0.01 0.02 0.02 0.03 0.03 0.03 0.03 0.04 0.04 0.05 0.05 0.04 0.03 0.03 0.02 0.03 0.03 0.02 0.01 0.01 0.01 0.01 0.02 0.02
0.03 0.02 0.02 0.02 0.01 0.01 0.01 0.01 0.01 0.02 0.02 0.02 0.02 0.01 0.01 0.01 0.02 0.02 0.02 0.02 0.02 0.02 0.02 0.03 0.03 0.04 0.05 0.05 0.04 0.04 0.03 0.03 0.02 0.02 0.02 0.02 0.02 0.02 0.01 0.01 0.02 0.02 0.02
0.04 0.03 0.01 0.01 0.01 0.01 0.01 0.01 0.01 0.02 0.02 0.02 0.01 0.01 0.02 0.02 0.03 0.02 0.02 0.02 0.02 0.02 0.02 0.02 0.02 0.03 0.03 0.03 0.03 0.02 0.02 0.02 0.02 0.02 0.01 0.02 0.02 0.02 0.02 0.02 0.02 0.02 0.02
MSLP
1016.73 1016.67 1016.57 1016.49 1016.47 1016.53 1016.70 1016.95 1017.28 1017.64 1018.00 1018.33 1018.61 1018.85 1019.04 1019.21 1019.38 1019.55 1019.72 1019.88 1020.00 1020.08 1020.10 1020.08 1020.02 1019.95 1019.89 1019.85 1019.84 1019.86 1019.88 1019.90 1019.90 1019.86 1019.80 1019.72 1019.63 1019.53 1019.43 1019.31 1019.17 1018.98 1018.74
1016.85 1016.77 1016.69 1016.65 1016.69 1016.83 1017.08 1017.42 1017.83 1018.26 1018.68 1019.05 1019.36 1019.60 1019.79 1019.95 1020.10 1020.24 1020.38 1020.51 1020.62 1020.69 1020.72 1020.71 1020.67 1020.61 1020.57 1020.53 1020.52 1020.51 1020.52 1020.51 1020.48 1020.43 1020.37 1020.29 1020.22 1020.15 1020.08 1019.99 1019.87 1019.71 1019.48
1016.88 1016.80 1016.75 1016.77 1016.90 1017.13 1017.49 1017.93 1018.43 1018.94 1019.41 1019.83 1020.16 1020.41 1020.61 1020.75 1020.87 1020.98 1021.09 1021.18 1021.26 1021.32 1021.34 1021.34 1021.32 1021.29 1021.26 1021.24 1021.23 1021.22 1021.21 1021.17 1021.13 1021.06 1020.99 1020.92 1020.86 1020.81 1020.77 1020.72 1020.63 1020.50 1020.29
1016.86 1016.80 1016.79 1016.88 1017.10 1017.44 1017.90 1018.45 1019.04 1019.61 1020.14 1020.60 1020.96 1021.23 1021.42 1021.56 1021.67 1021.76 1021.83 1021.90 1021.95 1021.99 1022.01 1022.01 1022.01 1022.00 1021.99 1021.99 1021.99 1021.98 1021.96 1021.91 1021.85 1021.76 1021.68 1021.60 1021.54 1021.50 1021.47 1021.44 1021.39 1021.28 1021.11
1016.84 1016.78 1016.82 1016.99 1017.30 1017.74 1018.29 1018.92 1019.58 1020.21 1020.79 1021.27 1021.66 1021.96 1022.17 1022.33 1022.44 1022.52 1022.58 1022.63 1022.67 1022.70 1022.72 1022.73 1022.74 1022.75 1022.77 1022.79 1022.81 1022.81 1022.78 1022.72 1022.63 1022.53 1022.41 1022.32 1022.24 1022.19 1022.16 1022.13 1022.09 1022.00 1021.85
1016.85 1016.81 1016.89 1017.11 1017.49 1018.01 1018.62 1019.31 1020.00 1020.67 1021.27 1021.78 1022.19 1022.52 1022.77 1022.96 1023.11 1023.22 1023.30 1023.37 1023.41 1023.45 1023.47 1023.49 1023.53 1023.56 1023.61 1023.65 1023.68 1023.69 1023.66 1023.59 1023.48 1023.34 1023.20 1023.06 1022.95 1022.87 1022.81 1022.77 1022.71 1022.62 1022.48
1016.93 1016.90 1017.01 1017.27 1017.69 1018.24 1018.88 1019.57 1020.27 1020.93 1021.53 1022.05 1022.49 1022.85 1023.16 1023.41 1023.62 1023.79 1023.93 1024.04 1024.13 1024.19 1024.24 1024.29 1024.35 1024.41 1024.48 1024.55 1024.60 1024.61 1024.58 1024.50 1024.37 1024.21 1024.02 1023.84 1023.67 1023.54 1023.43 1023.34 1023.25 1023.15 1023.00
1017.12 1017.09 1017.21 1017.48 1017.91 1018.45 1019.07 1019.73 1020.38 1021.00 1021.57 1022.08 1022.53 1022.93 1023.30 1023.63 1023.93 1024.20 1024.42 1024.61 1024.77 1024.88 1024.98 1025.07 1025.16 1025.26 1025.36 1025.45 1025.51 1025.54 1025.51 1025.42 1025.27 1025.07 1024.85 1024.62 1024.40 1024.20 1024.03 1023.88 1023.74 1023.60 1023.42
1017.42 1017.39 1017.51 1017.77 1018.17 1018.66 1019.22 1019.80 1020.37 1020.92 1021.43 1021.90 1022.35 1022.79 1023.22 1023.63 1024.03 1024.41 1024.74 1025.03 1025.26 1025.46 1025.62 1025.77 1025.90 1026.04 1026.16 1026.28 1026.36 1026.40 1026.38 1026.29 1026.13 1025.91 1025.65 1025.38 1025.12 1024.86 1024.63 1024.42 1024.23 1024.03 1023.81
1017.82 1017.80 1017.91 1018.14 1018.49 1018.91 1019.38 1019.85 1020.32 1020.77 1021.20 1021.62 1022.06 1022.51 1022.98 1023.47 1023.96 1024.43 1024.87 1025.26 1025.59 1025.87 1026.10 1026.31 1026.50 1026.67 1026.83 1026.97 1027.08 1027.13 1027.12 1027.04 1026.88 1026.67 1026.40 1026.12 1025.82 1025.53 1025.25 1024.99 1024.74 1024.49 1024.22
1018.31 1018.29 1018.39 1018.59 1018.88 1019.22 1019.59 1019.96 1020.32 1020.66 1021.00 1021.36 1021.76 1022.20 1022.69 1023.23 1023.78 1024.33 1024.84 1025.31 1025.73 1026.09 1026.39 1026.66 1026.90 1027.12 1027.32 1027.49 1027.62 1027.69 1027.71 1027.64 1027.51 1027.31 1027.06 1026.79 1026.49 1026.19 1025.90 1025.61 1025.31 1025.01 1024.70
1018.83 1018.83 1018.93 1019.11 1019.35 1019.62 1019.90 1020.18 1020.43 1020.68 1020.94 1021.24 1021.58 1022.00 1022.48 1023.01 1023.58 1024.16 1024.72 1025.24 1025.71 1026.12 1026.49 1026.81 1027.10 1027.37 1027.60 1027.81 1027.96 1028.07 1028.10 1028.07 1027.97 1027.81 1027.61 1027.37 1027.11 1026.84 1026.55 1026.25 1025.94 1025.61 1025.27
1019.34 1019.38 1019.49 1019.66 1019.87 1020.10 1020.33 1020.54 1020.73 1020.90 1021.10 1021.33 1021.62 1021.99 1022.42 1022.92 1023.46 1024.02 1024.57 1025.10 1025.58 1026.02 1026.43 1026.79 1027.13 1027.43 1027.71 1027.94 1028.13 1028.27 1028.34 1028.34 1028.29 1028.18 1028.04 1027.86 1027.66 1027.44 1027.19 1026.92 1026.61 1026.28 1025.91
1019.82 1019.90 1020.04 1020.22 1020.44 1020.65 1020.86 1021.04 1021.20 1021.34 1021.50 1021.69 1021.92 1022.23 1022.60 1023.02 1023.49 1023.99 1024.49 1024.97 1025.43 1025.87 1026.29 1026.68 1027.05 1027.39 1027.70 1027.97 1028.18 1028.35 1028.45 1028.49 1028.49 1028.44 1028.35 1028.25 1028.12 1027.96 1027.78 1027.55 1027.28 1026.95 1026.58
1020.26 1020.38 1020.56 1020.77 1021.01 1021.25 1021.47 1021.66 1021.82 1021.97 1022.11 1022.27 1022.47 1022.71 1023.01 1023.34 1023.71 1024.11 1024.52 1024.93 1025.34 1025.75 1026.16 1026.56 1026.95 1027.31 1027.65 1027.95 1028.19 1028.38 1028.51 1028.58 1028.61 1028.60 1028.57 1028.53 1028.47 1028.39 1028.28 1028.11 1027.89 1027.60 1027.24
1020.66 1020.83 1021.05 1021.30 1021.58 1021.85 1022.11 1022.34 1022.54 1022.71 1022.87 1023.03 1023.20 1023.40 1023.61 1023.85 1024.12 1024.41 1024.71 1025.03 1025.37 1025.74 1026.12 1026.51 1026.91 1027.30 1027.66 1027.98 1028.24 1028.43 1028.57 1028.65 1028.70 1028.72 1028.73 1028.74 1028.73 1028.71 1028.66 1028.56 1028.39 1028.15 1027.83
1021.06 1021.27 1021.53 1021.82 1022.13 1022.44 1022.74 1023.02 1023.26 1023.48 1023.68 1023.86 1024.02 1024.18 1024.34 1024.51 1024.68 1024.86 1025.07 1025.30 1025.57 1025.89 1026.24 1026.62 1027.02 1027.41 1027.78 1028.10 1028.36 1028.56 1028.69 1028.76 1028.80 1028.83 1028.85 1028.87 1028.90 1028.92 1028.92 1028.87 1028.76 1028.58 1028.32
1021.50 1021.74 1022.02 1022.33 1022.66 1023.00 1023.33 1023.65 1023.94 1024.20 1024.44 1024.65 1024.82 1024.97 1025.11 1025.22 1025.32 1025.43 1025.56 1025.72 1025.93 1026.20 1026.52 1026.89 1027.28 1027.67 1028.03 1028.35 1028.59 1028.77 1028.87 1028.92 1028.94 1028.94 1028.94 1028.96 1028.99 1029.03 1029.05 1029.05 1028.99 1028.86 1028.66
1022.01 1022.26 1022.54 1022.85 1023.19 1023.53 1023.87 1024.20 1024.52 1024.82 1025.09 1025.32 1025.53 1025.69 1025.82 1025.91 1025.99 1026.06 1026.14 1026.26 1026.43 1026.66 1026.96 1027.30 1027.67 1028.05 1028.39 1028.68 1028.90 1029.05 1029.12 1029.13 1029.10 1029.06 1029.03 1029.02 1029.04 1029.07 1029.10 1029.11 1029.09 1029.01 1028.87
1022.59 1022.84 1023.12 1023.41 1023.72 1024.03 1024.35 1024.68 1024.99 1025.30 1025.59 1025.85 1026.09 1026.28 1026.43 1026.54 1026.62 1026.69 1026.76 1026.86 1027.01 1027.22 1027.49 1027.81 1028.15 1028.49 1028.81 1029.07 1029.25 1029.36 1029.38 1029.35 1029.28 1029.20 1029.12 1029.07 1029.05 1029.06 1029.08 1029.10 1029.09 1029.05 1028.96
1023.22 1023.47 1023.73 1023.99 1024.25 1024.52 1024.79 1025.08 1025.37 1025.66 1025.96 1026.24 1026.50 1026.73 1026.91 1027.06 1027.17 1027.27 1027.36 1027.47 1027.62 1027.81 1028.05 1028.34 1028.65 1028.95 1029.22 1029.44 1029.58 1029.64 1029.63 1029.56 1029.45 1029.33 1029.21 1029.13 1029.08 1029.05 1029.05 1029.05 1029.05 1029.02 1028.96
1023.85 1024.09 1024.33 1024.55 1024.77 1024.98 1025.19 1025.42 1025.67 1025.93 1026.22 1026.50 1026.79 1027.05 1027.28 1027.48 1027.64 1027.78 1027.90 1028.03 1028.18 1028.37 1028.59 1028.83 1029.09 1029.35 1029.57 1029.73 1029.83 1029.86 1029.81 1029.72 1029.59 1029.45 1029.31 1029.20 1029.12 1029.06 1029.03 1029.01 1028.99 1028.95 1028.90
1024.40 1024.65 1024.88 1025.07 1025.24 1025.40 1025.56 1025.73 1025.92 1026.15 1026.41 1026.69 1026.99 1027.28 1027.56 1027.80 1028.02 1028.20 1028.36 1028.51 1028.67 1028.84 1029.03 1029.23 1029.44 1029.63 1029.80 1029.92 1029.98 1029.98 1029.92 1029.82 1029.69 1029.54 1029.41 1029.29 1029.19 1029.11 1029.05 1029.00 1028.95 1028.89 1028.82
1024.80 1025.07 1025.30 1025.48 1025.63 1025.75 1025.86 1025.99 1026.14 1026.34 1026.57 1026.85 1027.15 1027.46 1027.76 1028.05 1028.30 1028.52 1028.71 1028.88 1029.03 1029.18 1029.34 1029.49 1029.65 1029.79 1029.90 1029.98 1030.01 1030.00 1029.94 1029.85 1029.73 1029.61 1029.49 1029.38 1029.28 1029.20 1029.12 1029.03 1028.94 1028.84 1028.73
1025.00 1025.30 1025.55 1025.74 1025.89 1026.00 1026.10 1026.20 1026.33 1026.50 1026.72 1026.98 1027.28 1027.60 1027.92 1028.22 1028.50 1028.73 1028.94 1029.11 1029.25 1029.38 1029.50 1029.62 1029.72 1029.81 1029.88 1029.92 1029.93 1029.92 1029.87 1029.80 1029.72 1029.63 1029.55 1029.46 1029.38 1029.29 1029.19 1029.08 1028.95 1028.81 1028.65
1024.98 1025.32 1025.59 1025.82 1025.99 1026.12 1026.23 1026.34 1026.47 1026.64 1026.85 1027.10 1027.39 1027.71 1028.02 1028.33 1028.60 1028.84 1029.04 1029.20 1029.33 1029.44 1029.53 1029.60 1029.66 1029.71 1029.75 1029.77 1029.77 1029.76 1029.73 1029.69 1029.65 1029.60 1029.55 1029.49 1029.43 1029.35 1029.25 1029.11 1028.95 1028.77 1028.56
Thickness
5743 5742 5740 5738 5737 5735 5734 5733 5732 5731 5730 5730 5729 5729 5727 5726 5724 5722 5720 5719 5719 5718 5718 5717 5716 5716 5716 5715 5715 5715 5715 5714 5714 5714 5714 5713 5714 5713 5713 5713 5713 5713 5714
5742 5739 5737 5735 5734 5732 5731 5730 5728 5727 5726 5725 5724 5723 5723 5722 5720 5719 5716 5715 5714 5713 5713 5713 5712 5712 5712 5711 5711 5711 5710 5710 5710 5709 5709 5709 5709 5709 5709 5709 5710 5710 5710
5739 5737 5734 5732 5731 5729 5728 5726 5725 5723 5721 5720 5719 5719 5718 5717 5717 5715 5713 5711 5710 5709 5708 5708 5708 5707 5707 5707 5706 5706 5706 5706 5705 5705 5705 5705 5705 5705 5705 5705 5705 5706 5705
5737 5735 5731 5729 5727 5726 5724 5721 5719 5717 5716 5715 5714 5714 5714 5713 5713 5711 5710 5708 5706 5705 5703 5703 5702 5702 5702 5702 5702 5702 5702 5701 5701 5701 5701 5700 5701 5701 5701 5702 5701 5701 5701
5733 5731 5728 5726 5724 5722 5720 5718 5715 5713 5710 5709 5709 5709 5709 5709 5708 5707 5706 5704 5703 5701 5699 5698 5698 5697 5697 5697 5697 5697 5697 5697 5696 5696 5696 5696 5696 5696 5698 5699 5697 5696 5696
5728 5727 5725 5723 5720 5717 5715 5713 5710 5709 5707 5706 5706 5704 5704 5704 5704 5703 5701 5700 5699 5698 5696 5695 5694 5693 5692 5692 5692 5692 5692 5692 5692 5691 5691 5691 5691 5691 5692 5692 5692 5691 5691
5725 5724 5722 5719 5716 5713 5710 5709 5706 5704 5702 5703 5699 5696 5697 5699 5698 5697 5697 5695 5694 5693 5692 5691 5690 5689 5688 5687 5686 5686 5687 5687 5687 5687 5686 5686 5686 5686 5686 5686 5686 5686 5686
5721 5720 5718 5715 5712 5709 5707 5705 5703 5699 5698 5699 5695 5689 5684 5685 5689 5692 5691 5690 5689 5689 5688 5687 5686 5685 5683 5682 5681 5681 5681 5681 5681 5681 5681 5681 5681 5681 5682 5681 5681 5681 5681
5717 5716 5714 5712 5709 5707 5703 5702 5700 5697 5693 5695 5695 5689 5680 5675 5678 5682 5685 5684 5684 5683 5682 5682 5681 5680 5678 5677 5676 5675 5675 5675 5676 5676 5676 5676 5676 5676 5676 5676 5675 5675 5675
5714 5712 5711 5709 5706 5704 5702 5700 5698 5696 5693 5690 5691 5691 5689 5684 5675 5671 5675 5678 5679 5678 5677 5676 5676 5674 5673 5672 5671 5670 5670 5669 5669 5669 5670 5670 5670 5670 5670 5670 5670 5669 5669
5710 5709 5708 5706 5704 5701 5699 5698 5696 5694 5692 5689 5687 5686 5684 5683 5680 5672 5666 5669 5671 5673 5673 5672 5670 5669 5668 5667 5665 5665 5664 5663 5663 5663 5663 5664 5664 5664 5664 5664 5664 5664 5663
5706 5705 5704 5703 5701 5699 5697 5695 5693 5691 5689 5688 5686 5684 5681 5678 5675 5672 5666 5664 5663 5666 5668 5668 5666 5665 5664 5662 5660 5659 5659 5658 5657 5657 5657 5657 5658 5658 5658 5658 5658 5658 5657
5700 5701 5701 5699 5698 5696 5695 5693 5691 5689 5687 5685 5683 5682 5681 5679 5677 5673 5667 5662 5661 5661 5662 5662 5663 5662 5660 5658 5656 5655 5654 5653 5652 5652 5651 5651 5651 5651 5652 5652 5652 5651 5651
5698 5699 5697 5696 5694 5693 5691 5690 5687 5686 5685 5683 5682 5680 5678 5677 5675 5672 5667 5661 5656 5656 5656 5655 5658 5657 5656 5654 5652 5650 5649 5648 5647 5646 5646 5645 5645 5645 5645 5644 5644 5644 5644
5696 5695 5694 5692 5690 5689 5687 5685 5683 5682 5681 5679 5678 5677 5675 5674 5673 5671 5668 5664 5657 5650 5648 5650 5650 5652 5651 5650 5648 5646 5645 5643 5642 5641 5640 5639 5638 5638 5638 5637 5637 5637 5637
5692 5691 5690 5688 5686 5684 5683 5681 5678 5678 5676 5675 5674 5672 5671 5670 5669 5667 5665 5663 5661 5654 5648 5648 5647 5647 5647 5646 5643 5642 5640 5639 5637 5636 5635 5634 5633 5632 5631 5631 5630 5630 5630
5688 5687 5686 5684 5682 5680 5678 5676 5674 5674 5672 5671 5670 5668 5667 5667 5665 5664 5662 5660 5657 5654 5646 5644 5644 5643 5642 5640 5638 5637 5636 5634 5632 5631 5630 5628 5627 5626 5625 5624 5623 5623 5623
5684 5683 5682 5680 5678 5676 5675 5672 5670 5669 5668 5666 5665 5664 5663 5663 5661 5660 5658 5656 5654 5651 5646 5640 5638 5638 5637 5636 5634 5633 5632 5630 5628 5626 5625 5623 5622 5620 5619 5618 5617 5617 5616
5679 5678 5677 5675 5673 5672 5671 5669 5667 5665 5664 5662 5661 5660 5659 5657 5656 5655 5654 5652 5650 5649 5644 5638 5634 5634 5632 5632 5629 5628 5627 5625 5624 5622 5620 5618 5617 5615 5614 5613 5612 5610 5609
5674 5673 5671 5670 5669 5668 5666 5664 5663 5661 5659 5658 5657 5656 5655 5653 5652 5651 5649 5647 5645 5643 5639 5635 5631 5629 5627 5627 5625 5622 5620 5619 5618 5617 5615 5614 5612 5610 5608 5607 5606 5604 5603
5670 5668 5667 5665 5664 5663 5661 5659 5657 5656 5654 5652 5652 5651 5650 5650 5649 5647 5645 5643 5641 5638 5635 5631 5628 5625 5623 5621 5619 5618 5615 5613 5613 5612 5610 5609 5607 5605 5603 5602 5600 5599 5598
5664 5663 5661 5659 5658 5657 5656 5654 5653 5651 5649 5648 5646 5645 5645 5644 5644 5642 5641 5640 5638 5634 5631 5628 5625 5622 5620 5618 5616 5615 5612 5609 5606 5607 5606 5604 5603 5600 5599 5597 5596 5595 5593
5658 5656 5655 5653 5651 5650 5650 5649 5648 5646 5644 5643 5642 5640 5640 5639 5637 5635 5635 5634 5632 5631 5629 5626 5623 5621 5618 5617 5614 5611 5609 5606 5604 5604 5602 5599 5598 5596 5595 5595 5593 5591 5589
5651 5650 5648 5647 5645 5644 5643 5642 5641 5640 5638 5637 5637 5636 5634 5632 5631 5629 5628 5627 5625 5624 5624 5623 5622 5620 5619 5617 5614 5611 5607 5604 5602 5601 5599 5594 5594 5593 5593 5591 5590 5588 5586
5645 5644 5643 5641 5639 5637 5637 5636 5634 5632 5631 5630 5630 5630 5628 5626 5626 5624 5622 5620 5619 5618 5619 5619 5618 5617 5616 5614 5611 5607 5603 5599 5595 5594 5594 5590 5590 5589 5588 5587 5586 5585 5583
5640 5639 5637 5636 5634 5632 5631 5630 5628 5626 5624 5623 5623 5623 5622 5621 5620 5618 5616 5614 5613 5612 5613 5612 5612 5611 5610 5609 5607 5604 5601 5596 5592 5589 5590 5587 5585 5583 5581 5583 5582 5581 5578